Location: Shepherdstown, WV
(39.4326°N, 77.8042°W)
Time: 21:05:54
(UTC-04:00)

Vanguard 1 Rocket - Pass Details

Date: 15 August 2021
Orbit: 650 x 4226 km, 34.3° (Epoch: 16 September)

Event Time Altitude Azimuth Distance (km) Brightness Sun altitude
Rises 09:49:18 0° 262° (W) 8,381 11.9 38.2°
Reaches altitude 10° 09:55:03 10° 262° (W) 7,428 11.7 39.2°
Maximum altitude 10:21:01 76° 183° (S) 3,558 11.3 44.0°
Drops below altitude 10° 10:36:55 10° 101° (E) 4,916 12.1 46.8°
Sets 10:39:50 0° 99° (E) 5,560 12.1 47.3°
